Regional Weather Roundup
Issued by NWS

Home | Current Version | Previous Version | Graphics & Text | Print | Product List | Glossary On
Versions: 1 2 3 4 5 6 7 8 9 10 11 12 13 14 15 16 17 18 19 20 21 22 23 24 25 26 27 28 29 30 31 32 33 34 35 36 37 38 39 40 41 42 43 44 45 46 47 48 49 50
000
ASUS43 KLMK 291310
RWRKY
KENTUCKY REGIONAL WEATHER ROUNDUP
NATIONAL WEATHER SERVICE LOUISVILLE KY
900 AM EDT FRI MAY 29 2015

NOTE "FAIR" INDICATES FEW OR NO CLOUDS BELOW 12,000 FEET
WITH NO SIGNIFICANT WEATHER AND/OR OBSTRUCTIONS TO VISIBILITY.

KYZ001>023-026-027-061>063-070>075-291400-
WESTERN AND SOUTH CENTRAL KENTUCKY

CITY           SKY/WX    TMP DP  RH WIND       PRES   REMARKS
PADUCAH        CLOUDY    71  67  87 S7        30.10R
HENDERSON      CLOUDY    70  64  83 S8        30.11R
OWENSBORO      CLOUDY    73  68  84 S13       30.14R
HOPKINSVILLE   CLOUDY    70  65  86 SE7       30.13S
BOWLING GREEN  MOSUNNY   73  66  78 S6        30.15S
GLASGOW        MOSUNNY   71  65  83 S6        30.16S
$$

KYZ024-025-028>034-038-045-046-053-291400-
NORTH CENTRAL KENTUCKY

CITY           SKY/WX    TMP DP  RH WIND       PRES   REMARKS
LOUISVILLE/SDF PTSUNNY   73  66  78 S12       30.14R
LOUISVILLE/LOU PTSUNNY   73  66  78 S8        30.15R
FORT KNOX      PTSUNNY   70  66  87 S9        30.13S
$$

KYZ035>037-039>044-047>052-055>060-089>105-291400-
NORTHEAST KENTUCKY

CITY           SKY/WX    TMP DP  RH WIND       PRES   REMARKS
LEXINGTON      CLOUDY    70  67  90 S9        30.19R
COVINGTON      PTSUNNY   70  67  90 S7        30.15F
FRANKFORT      MOSUNNY   68  65  90 S10       30.16S
$$

KYZ054-064>069-076>088-106>120-291400-
SOUTHEAST KENTUCKY

CITY           SKY/WX    TMP DP  RH WIND       PRES   REMARKS
JACKSON        PTSUNNY   73  65  75 CALM      30.23R
LONDON         MOSUNNY   69  63  81 SE5       30.22R
SOMERSET       CLOUDY    64  64 100 CALM      30.23R
MIDDLESBORO    PTSUNNY   67  65  96 CALM      30.25R
MONTICELLO     SUNNY     72  68  87 SE5       30.24R
$$




USA.gov is the U.S. government's official web portal to all federal, state and local government web resources and services.